Location: Siratepeler Tepesi
(39.1042°N, 32.0781°E)
Time: 13:51:18
(UTC+00:00)

Cosmos 2237 Rocket - Pass Details

Date: 11 April 2026
Orbit: 833 x 850 km, 71.0° (Epoch: 13 May)

Event Time Altitude Azimuth Distance (km) Brightness Sun altitude
Exits shadow 20:47:18 18° 301° (WNW) 1,951 4.5 -40.0°
Maximum altitude 20:47:51 19° 308° (NW) 1,940 4.5 -40.0°
Drops below altitude 10° 20:51:44 10° 351° (N) 2,480 5.3 -40.3°
Sets 20:55:00 0° 10° (N) 3,421 6.0 -40.5°
